Location: Newark
(45.5000°N, 11.4167°E)
Time: 03:47:46
(UTC+00:00)

Vanguard 3 - Pass Details

Date: 25 August 2019
Orbit: 508 x 3262 km, 33.3° (Epoch: 13 October)

Event Time Altitude Azimuth Distance (km) Brightness Sun altitude
Rises 12:46:09 0° 199° (SSW) 6,242 12.3 50.3°
Reaches altitude 10° 12:54:23 10° 174° (S) 4,483 11.5 49.4°
Maximum altitude 12:58:07 12° 155° (SSE) 3,928 11.0 49.0°
Drops below altitude 10° 13:01:21 10° 136° (SE) 3,727 10.7 48.7°
Sets 13:06:26 0° 107° (ESE) 4,101 10.6 48.1°
